Regional Weather Roundup
Issued by NWS Cleveland, OH

Home | Current Version | Previous Version | Graphics & Text | Print | Product List | Glossary On
Versions: 1 2 3 4 5 6 7 8 9 10 11 12 13 14 15 16 17 18 19 20 21 22 23 24 25 26 27 28 29 30 31 32 33 34 35 36 37 38 39 40 41 42 43 44 45 46 47 48 49 50
000
ASUS41 KCLE 021710
RWRCLE
OHIO REGIONAL WEATHER ROUNDUP
NATIONAL WEATHER SERVICE WILMINGTON, OH
100 PM EDT SUN AUG 02 2015

NOTE: "FAIR" INDICATES FEW OR NO CLOUDS BELOW 12,000 FEET WITH NO
SIGNIFICANT WEATHER AND/OR OBSTRUCTIONS TO VISIBILITY.

OHZ001>008-015>018-024>027-034-035-043-044-021800-
   NORTHWEST OHIO

CITY           SKY/WX    TMP DP  RH WIND       PRES   REMARKS
DEFIANCE       SUNNY     86  66  51 SW12G22   29.88F
FINDLAY        SUNNY     85  66  53 SW12      29.90F
TOLEDO EXPRESS SUNNY     85  65  51 SW13G23   29.87F
TOLEDO EXEC    SUNNY     87  63  44 SW16      29.88F
LIMA           SUNNY     83  64  52 SW15      29.94F
$$

OHZ009>014-019>023-028>033-038-089-021800-
   NORTHEAST OHIO

CITY           SKY/WX    TMP DP  RH WIND       PRES   REMARKS
CLE-HOPKINS    MOSUNNY   85  66  53 SW12      29.92F
CLE-LAKEFRONT  SUNNY     86  65  49 SW14      29.88F
CUY CO. ARPT   MOSUNNY   86  64  48 SW9       29.91F
LORAIN-ELYRIA  SUNNY     83  66  56 W10       29.91F
ASHTABULA      SUNNY     82  58  43 SW9       29.92S
AKRON-CANTON   MOSUNNY   83  64  52 W10       29.94S
WOOSTER        SUNNY     82  66  58 W9        29.95S
MANSFIELD      MOSUNNY   83  65  54 W10       29.95S
YOUNGSTOWN     MOSUNNY   82  61  48 W14       29.93F
$$

OHZ042-051>053-060>062-070>072-077>081-021800-
  SOUTHWEST OHIO

CITY           SKY/WX    TMP DP  RH WIND       PRES   REMARKS
CINC-COVINGTON MOSUNNY   83  61  47 S8        29.99F
CINC-LUNKEN    SUNNY     84  61  45 S9        29.98F
HAMILTON       SUNNY     85  60  42 VRB6      29.98F
DAYTON         MOSUNNY   83  63  50 W14       29.98F
WRIGHT-PAT AFB SUNNY     83  62  48 SW8       29.97F
DAYTON GENERAL SUNNY     82  58  43 SW9       29.98F
WILMINGTON     SUNNY     82  59  45 W10       29.99F
$$

OHZ036-037-039>041-045>050-054>059-063>069-073>076-082>088-021800-
  CENTRAL AND SOUTHEAST OHIO

CITY           SKY/WX    TMP DP  RH WIND       PRES   REMARKS
COLUMBUS       MOSUNNY   85  61  44 VRB6G20   29.96S
OSU AIRPORT    MOSUNNY   83  63  50 W12       29.96S
BOLTON FIELD   SUNNY     82  64  54 W9        29.98S
RICKENBACK AFB SUNNY     82  64  53 W9        29.96F
NEWARK         MOSUNNY   85  62  46 W8G17     29.96S
MARION         SUNNY     83  63  50 W13       29.95S
LANCASTER      SUNNY     84  64  50 SW12      29.98F
ZANESVILLE     SUNNY     83  61  47 W9        29.97S
NEW PHILLY     MOSUNNY   81  67  62 W6        29.95F
$$



USA.gov is the U.S. government's official web portal to all federal, state and local government web resources and services.